Home   Weather   Kawartha Lakes   Past weeks

Flag for Canada Past Weather in Kawartha Lakes, Ontario, Canada — Yesterday and Last 2 Weeks

Now
33 °F

Chilly.


Feels Like: 29 °F
Forecast: 31 / 38 °F
Wind: 5 mph from Southeast

Location: Lagoon City

Current Time: Jan 19, 2017 at 11:07:29 pm

Latest Report: Jan 19, 2017 at 10:00 pm


Visibility: N/A

Pressure: 29.98 "Hg

Humidity: 91%

Dew Point: 31 °F

Location of Kawartha LakesLocation

Past Weather in Kawartha Lakes — Graph

°F

Kawartha Lakes Temperature Yesterday

Maximum temperature yesterday: 34 °F (at 8:00 pm)
Minimum temperature yesterday: 31 °F (at 7:00 am)
Average temperature yesterday: 32 °F

High & Low Weather Summary for the Past Weeks

 TemperatureHumidityPressure
High42 °F (Jan 11, 8:00 pm)100% (Jan 10, 6:00 pm)30.80 "Hg (Jan 10, 6:00 pm)
Low1 °F (Jan 8, 10:00 pm)53% (Jan 13, 7:00 pm)29.37 "Hg (Jan 11, 12:00 am)
Average23 °F81%30.13 "Hg
* Reported Jan 4 9:00 pm — Jan 19 9:00 pm, Kawartha Lakes, Weather by CustomWeather, © 2017

Note: Actual official high and low records may vary slightly from our data, if they occured in-between our weather recording intervals... More about our weather records

Advertising

Kawartha Lakes Weather History for the Previous 24 Hours

Scroll right to see more
 ConditionsComfort  
Time TempWeatherWind HumidityBarometerVisibility
9:00 pm
Thu, Jan 19
33 °FChilly.2 mph94%29.99 "HgN/A
8:00 pm33 °FChilly.2 mph95%30.01 "HgN/A
7:00 pm33 °FChilly.3 mph93%30.02 "HgN/A
6:00 pm33 °FChilly.8 mph94%30.03 "HgN/A
5:00 pm33 °FChilly.7 mph95%30.01 "HgN/A
4:00 pm31 °FChilly.6 mph100%29.98 "HgN/A
3:00 pm33 °FChilly.6 mph96%29.99 "HgN/A
2:00 pm33 °FChilly.8 mph96%29.99 "HgN/A
1:00 pm33 °FChilly.9 mph96%30.01 "HgN/A
12:00 pm33 °FChilly.9 mph96%30.03 "HgN/A
11:00 am33 °FChilly.8 mph95%30.05 "HgN/A
10:00 am33 °FChilly.9 mph95%30.05 "HgN/A
9:00 am33 °FChilly.8 mph93%30.04 "HgN/A
8:00 am33 °FChilly.9 mph95%30.03 "HgN/A
7:00 am33 °FChilly.12 mph93%30.01 "HgN/A
6:00 am33 °FChilly.13 mph94%29.99 "HgN/A
5:00 am34 °FChilly.10 mph92%29.97 "HgN/A
4:00 am34 °FChilly.9 mph90%29.98 "HgN/A
3:00 am34 °FChilly.10 mph90%29.97 "HgN/A
2:00 am34 °FChilly.8 mph91%29.96 "HgN/A
1:00 am33 °FChilly.8 mph93%29.96 "HgN/A
12:00 am33 °FChilly.6 mph95%29.97 "HgN/A
11:00 pm
Wed, Jan 18
33 °FChilly.9 mph94%29.96 "HgN/A
Weather by CustomWeather, © 2017

See weather overviewHow to use our weather pages